Regional Weather Roundup
Issued by NWS

Home | Current Version | Previous Version | Graphics & Text | Print | Product List | Glossary On
Versions: 1 2 3 4 5 6 7 8 9 10 11 12 13 14 15 16 17 18 19 20 21 22 23 24 25 26 27 28 29 30 31 32 33 34 35 36 37 38 39 40 41 42 43 44 45 46 47 48 49
000
ASUS43 KDMX 231207
RWRIA

WEATHER ROUNDUP FOR IOWA
NATIONAL WEATHER SERVICE DES MOINES IA
700 AM CDT TUE SEP 23 2014

NOTE: "FAIR" INDICATES FEW OR NO CLOUDS BELOW 12,000 FEET WITH NO
SIGNIFICANT WEATHER AND/OR OBSTRUCTIONS TO VISIBILITY.

* - THESE STATIONS ARE NOT NWS STATIONS...THUS NOT UNDER NWS
QUALITY CONTROL.  THEY ALSO DO NOT REPORT WEATHER SUCH
AS PRECIPITATION OR FOG.

IAZ001>003-012>014-020>022-031>034-043>046-231300-
   NORTHWEST IOWA

CITY           SKY/WX    TMP DP  RH WIND       PRES   REMARKS
CARROLL *      CLEAR     50  50 100 SE3       30.21R
CHEROKEE *     CLOUDY    55  53  94 S5        30.17S
DENISON *      CLOUDY    57  54  88 S12       30.18R
LE MARS *        N/A     57  54  88 VRB5      30.16R
ORANGE CITY *  MOCLDY    57  52  82 S5        30.16R
SHELDON *      PTCLDY    54  52  94 S9        30.15S
SIOUX CITY     LGT RAIN  58  55  90 SE7       30.16R
6HR MIN TEMP:  56; 6HR MAX TEMP:  59; 6HR PCP:  0.04;

SPENCER        MOCLDY    52  49  89 S6        30.18R
6HR MIN TEMP:  49; 6HR MAX TEMP:  52;

STORM LAKE *   PTCLDY    54  54 100 S7        30.18S
$$

IAZ055>058-069>071-079>083-090>094-231300-
   SOUTHWEST IOWA

CITY           SKY/WX    TMP DP  RH WIND       PRES   REMARKS
ATLANTIC *     CLEAR     57  52  82 S8        30.21R
AUDUBON *      CLEAR     52  46  82 CALM      30.22R
CLARINDA *     CLEAR     55  54  94 CALM      30.24R
COUNCIL BLFS * CLEAR     57  55  94 SE8       30.18S
CRESTON *      CLEAR     52  50  93 SE7       30.23S
HARLAN  *      CLEAR     57  54  88 S5        30.24R
LAMONI         CLOUDY    53  49  86 S6        30.24R
6HR MIN TEMP:  53; 6HR MAX TEMP:  56;

RED OAK *      CLOUDY    57  54  88 S3        30.22R
SHENANDOAH *   CLEAR     57  54  88 SE6       30.21S
$$

IAZ047>049-059>061-072>074-084-231300-
   CENTRAL IOWA

CITY           SKY/WX    TMP DP  RH WIND       PRES   REMARKS
AMES           MOCLDY    48  47  96 CALM      30.24R
6HR MIN TEMP:  46; 6HR MAX TEMP:  52;

ANKENY *       CLEAR     48  48 100 CALM      30.24S
CHARITON *     CLOUDY    52  48  87 SE7       30.25S
DES MOINES     PTCLDY    54  48  80 S8        30.23S
6HR MIN TEMP:  54; 6HR MAX TEMP:  57;

GRINNELL*      PTCLDY    49  46  88 SE3       30.26S
KNOXVILLE *    MOCLDY    52  48  87 S7        30.24S
MARSHALLTOWN   PTCLDY    46  44  93 E7        30.25R
6HR MIN TEMP:  44; 6HR MAX TEMP:  50;

PELLA *        MOCLDY    49  48  95 SE5       30.27R
PERRY *          N/A     49  48  97 SE3       30.23R
$$

IAZ004>006-015-016-023>025-035-036-231300-
   NORTH CENTRAL IOWA

CITY           SKY/WX    TMP DP  RH WIND       PRES   REMARKS
ALGONA *       CLEAR     52  50  93 S7        30.22R
CLARION *        N/A     52  50  93 SE7       30.23R
ESTHERVILLE    PTCLDY    45  44  97 S6        30.19R
6HR MIN TEMP:  44; 6HR MAX TEMP:  50;

FORT DODGE *   MOCLDY    50  45  81 CALM      30.22S
MASON CITY     PTCLDY    45  45 100 S3        30.25R
6HR MIN TEMP:  44; 6HR MAX TEMP:  49;

FOREST CITY *  CLEAR     45  45 100 CALM      30.23R
IOWA FALLS *     N/A     46  46 100 CALM      30.25S
$$

IAZ007>011-017>019-026>030-037>042-050>054-066-231300-
   NORTHEAST IOWA

CITY           SKY/WX    TMP DP  RH WIND       PRES   REMARKS
CEDAR RAPIDS   CLEAR     45  45 100 SE5       30.27S
6HR MIN TEMP:  44; 6HR MAX TEMP:  50;

CHARLES CITY * CLEAR     48  46  93 SE7       30.26R
CLINTON *      CLEAR     43  39  87 E3        30.32R
DECORAH *      CLEAR     50  46  87 CALM      30.26S
DUBUQUE        CLEAR     45  42  89 S3        30.29R
6HR MIN TEMP:  43; 6HR MAX TEMP:  48;

MONTICELLO *   CLEAR     43  43 100 CALM      30.29R
OELWEIN *      CLEAR     46  45  93 SE6       30.28R
WATERLOO       PTCLDY    45  44  97 E5        30.26R
6HR MIN TEMP:  43; 6HR MAX TEMP:  49;

$$

IAZ064-065-067-068-078-231300-
   EAST CENTRAL IOWA

CITY           SKY/WX    TMP DP  RH WIND       PRES   REMARKS
DAVENPORT      CLEAR     44  41  89 S5        30.30R
6HR MIN TEMP:  44; 6HR MAX TEMP:  50;

IOWA CITY      CLEAR     45  44  97 CALM      30.29S
6HR MIN TEMP:  44; 6HR MAX TEMP:  49;

MT. PLEASANT * CLEAR     45  43  93 SE3       30.29R
MUSCATINE *    FOG       43  43 100 CALM      30.30R VSB 1/4
QUAD CITIES    CLEAR     42  41  96 CALM      30.30R
6HR MIN TEMP:  42; 6HR MAX TEMP:  48;

$$

IAZ062-063-075>077-085>089-095>099-231300-
   SOUTHEAST IOWA

CITY           SKY/WX    TMP DP  RH WIND       PRES   REMARKS
BURLINGTON     CLEAR     49  44  83 CALM      30.29R
6HR MIN TEMP:  46; 6HR MAX TEMP:  52;

FAIRFIELD *    MOCLDY    48  45  87 CALM      30.28R
FORT MADISON * CLEAR     52  45  76 SE3       30.30R
KEOKUK *       CLEAR     48  45  87 SE5       30.28R
OSKALOOSA *      N/A     47  45  95 S6        30.27R
CENTERVILLE *  CLEAR     48  48 100 SE3       30.27S
OTTUMWA        PTCLDY    49  46  90 S5        30.27R
6HR MIN TEMP:  47; 6HR MAX TEMP:  52;

WASHINGTON *   CLEAR     45  43  93 SE3       30.28S
$$

ABBREVIATIONS USED IN REMARKS
   TC - TEMPERATURES IN CELSIUS
  WCI - WIND CHILL INDEX
   HX - HEAT INDEX
  VSB - VISIBILITY
$$



USA.gov is the U.S. government's official web portal to all federal, state and local government web resources and services.